Miscellaneous Local Product
Issued by NWS Hastings, NE

Home | Current Version | Previous Version | Graphics & Text | Print | Product List | Glossary On
Versions: 1 2 3 4 5 6 7 8 9 10 11 12 13 14 15 16 17 18 19 20 21 22 23 24 25 26 27 28 29 30 31 32 33 34 35 36 37 38 39 40 41 42 43 44 45 46 47 48 49 50
000
AXUS43 KGID 231102
MISGRI

GID CWA HOURLY WEATHER ROUNDUP
NATIONAL WEATHER SERVICE HASTINGS NE
600 AM CDT MON OCT 23 2017

NOTE: "FAIR" INDICATES FEW OR NO CLOUDS BELOW 12,000 FEET WITH NO
SIGNIFICANT WEATHER AND/OR OBSTRUCTIONS TO VISIBILITY.

...SOUTH CENTRAL NEBRASKA...

CITY           SKY/WX    TMP DP  RH WIND       PRES   REMARKS
GRAND ISLAND   CLOUDY    58  39  49 N24G30    29.98R
KEARNEY        CLOUDY    56  38  50 N16       30.02R
HASTINGS       PTCLDY    55  37  50 N18       29.99R
ORD            CLOUDY    55  39  54 NW16      30.01R
YORK           PTCLDY    55  37  50 NW16G23   29.95R
AURORA         CLOUDY    58  38  46 N16G25    29.96R
LEXINGTON      CLOUDY    55  38  53 N20G28    30.07R
HOLDREGE       CLOUDY    55  39  54 N15G24    30.04R
HEBRON         CLEAR     47  33  58 W7        29.94R

...NEBRASKA PANHANDLE...

CITY           SKY/WX    TMP DP  RH WIND       PRES   REMARKS
CHADRON        CLEAR     46  26  45 NW13      30.21R
ALLIANCE       CLOUDY    48  27  44 NW20      30.19S
SCOTTSBLUFF    CLOUDY    48  26  42 NW28G38   30.28R
SIDNEY         CLOUDY    44  33  65 N17G29    30.26R

...WESTERN AND NORTH CENTRAL NEBRASKA...

CITY           SKY/WX    TMP DP  RH WIND       PRES   REMARKS
VALENTINE      PTCLDY    54  27  35 NW17G28   30.10R
AINSWORTH      PTCLDY    55  33  44 NW15G24   30.08R
ONEILL         CLOUDY    58  38  48 NW24G32   30.02R
BROKEN BOW     CLEAR     55  37  50 NW17G31   30.06R
IMPERIAL       CLOUDY    51  35  54 N13       30.18R
NORTH PLATTE   CLOUDY    53  38  56 N15G24    30.13R
MCCOOK         CLOUDY    54  36  50 N17       30.10R

...EASTERN NEBRASKA...

CITY           SKY/WX    TMP DP  RH WIND       PRES   REMARKS
NORFOLK        CLOUDY    58  39  49 NW20G29   29.94R
SO SIOUX CITY  PTCLDY    44  40  85 NW9       29.90R
TEKAMAH        PTCLDY    49  34  56 CALM      29.88R
COLUMBUS       PTCLDY    59  39  47 NW18G28   29.93R
ALBION         PTCLDY    60  39  46 NW23G30   29.97R
OMAHA EPPLEY   CLOUDY    47  36  65 SE7       29.88R
OFFUTT AFB     CLOUDY    39  36  86 CALM      29.87R
MILLARD        CLEAR     44  38  77 CALM      29.88R
LINCOLN        CLEAR     51  32  48 NW6       29.92R
NEBRASKA CITY  PTCLDY    45  37  74 SW5       29.88R
BEATRICE       CLEAR     45  35  68 SW3       29.91S
FALLS CITY     CLEAR     45  37  73 S5        29.89F

...NORTHERN KANSAS...

CITY           SKY/WX    TMP DP  RH WIND       PRES   REMARKS
GOODLAND       CLOUDY    52  32  46 N17G26    30.13R
HILL CITY      PTCLDY    58  34  40 N22       30.04R
NORTON         SUNNY     54  28  37 NW14      30.05R
PHILLIPSBURG   CLEAR     55  34  44 NW16G25   30.02R
SMITH CENTER   CLEAR     45  34  65 N10       29.99R
HAYS           CLEAR     52  33  48 NW16      29.99R
RUSSELL        CLEAR     44  34  67 W8        29.95R
CONCORDIA      CLEAR     47  32  56 W13       29.93R
SALINA         CLEAR     51  37  58 SW10      29.93S
TOPEKA         CLEAR     42  38  85 CALM      29.93F



USA.gov is the U.S. government's official web portal to all federal, state and local government web resources and services.